Regional Weather Roundup
Issued by NWS

Home | Current Version | Previous Version | Text Only | Print | Product List | Glossary On
Versions: 1 2 3 4 5 6 7 8 9 10 11 12 13 14 15 16 17 18 19 20 21 22 23 24 25 26 27 28 29 30 31 32 33 34 35 36 37 38 39 40 41 42 43 44 45 46 47 48 49 50
000
ASUS44 KJAN 061110
RWRMS

MISSISSIPPI HOURLY WEATHER ROUNDUP
NATIONAL WEATHER SERVICE JACKSON MS
600 AM CDT SAT JUN 06 2020

NOTE: "FAIR: INDICATES FEW OR NO CLOUDS BELOW 12,000 FEET WITH NO
SIGNIFICANT WEATHER AND/OR OBSTRUCTIONS TO VISIBILITY.

MSZ001>002-007>008-010>013-018>021-025>028-034>036-061200-
NORTHWEST MISSISSIPPI

CITY           SKY/WX    TMP DP  RH WIND       PRES   REMARKS
BATESVILLE     FAIR      68  66  94 CALM      29.97S
CLARKSDALE       N/A     70  70 100 CALM      29.97R
CLEVELAND      FAIR      70  70 100 CALM      29.95S
GREENWOOD      PTCLDY    69  67  93 CALM      29.96R
GREENVILLE     PTCLDY    71  69  93 SE5       29.94S
OLIVE BRANCH   CLEAR     66  66 100 CALM      29.97R
OXFORD         FAIR      66  66 100 CALM      29.99S
TUNICA         MOSUNNY   66  66 100 CALM      29.98R
WINONA         FAIR      68  67  99 MISG      29.96S
$$

MSZ003>006-009-014>017-022>024-029>033-037>039-061200-
NORTHEAST MISSISSIPPI

CITY           SKY/WX    TMP DP  RH WIND       PRES   REMARKS
ABERDEEN       FAIR      70  70 100 CALM      29.99R
COLUMBUS AFB   MOCLDY    69  68  96 CALM      29.97S
CORINTH        CLOUDY    66  66 100 CALM      29.99S FOG
GOLDN TRIANGLE MOCLDY    70  70 100 CALM      29.98S
STARKVILLE     PTSUNNY   64  64 100 CALM      29.99S
TUPELO         MOCLDY    70  67  90 N3        29.98R FOG
$$

MSZ040-058-061200-
CENTRAL MISSISSIPPI

CITY           SKY/WX    TMP DP  RH WIND       PRES   REMARKS
JACKSON INTL   PTCLDY    68  66  93 E3        29.95R
JACKSON HAWKNS PTCLDY    69  65  86 E3        29.95R
MADISON        PTSUNNY   64  64 100 CALM      29.95R
MERIDIAN KEY   PTCLDY    69  66  90 NE6       29.96R
MERIDIAN NAS   FOG       68  68 100 SE5       29.97R VSB 1/4
RAYMOND        FAIR      68  68 100 CALM      29.93S
VICKSBURG VKS  PTSUNNY   70  70 100 CALM      29.92S
$$

MSZ059>079-061200-
SOUTH MISSISSIPPI

CITY           SKY/WX    TMP DP  RH WIND       PRES   REMARKS
BROOKHAVEN     FOG       66  66 100 CALM      29.95R VSB 1/2
HATTIESBURG    MOCLDY    69  66  90 CALM      29.95R
LAUREL         SUNNY     68  67  95 CALM      29.94S
MCCOMB         PTCLDY    68  66  93 E3        29.91F
NATCHEZ        CLEAR     66  65  96 CALM      29.92F
PINE BELT      MOCLDY    67  67 100 NE5       29.95R
$$

MSZ080>082-061200-
COASTAL MISSISSIPPI

CITY           SKY/WX    TMP DP  RH WIND       PRES   REMARKS
BILOXI         MOCLDY    76  73  93 NE7       29.89S
PASCAGOULA     MOCLDY    75  72  90 CALM      29.91R
GULFPORT       MOCLDY    75  71  87 N5        29.89R
$$

LAZ007>009-015>016-023>026-061200-
NORTHEAST LOUISIANA

CITY           SKY/WX    TMP DP  RH WIND       PRES   REMARKS
BASTROP        CLOUDY    69  69  98 CALM      29.95S
TALLULAH/VBURG PTCLDY    73  69  87 CALM      29.93F
VIDALIA        FAIR      71  69  95 N5        29.91S
$$



USA.gov is the U.S. government's official web portal to all federal, state and local government web resources and services.